| time (UTC) | temp F | wind direction | speed MPH | gust MPH | rain 1hr in | rain 24hr in | rain mn in | humidity % | barometer mb |
| 20260905002056 | 81 | 0 | 0.0 | 0.0 | 0.00 | 0.71 | 0.71 | 84 | 1015.3 |
| 20260905001605 | 81 | 0 | 0.0 | 0.0 | 0.00 | 0.71 | 0.71 | 84 | 1015.1 |
| 20260905001058 | 81 | 0 | 0.0 | 0.0 | 0.00 | 0.71 | 0.71 | 84 | 1015.0 |
| 20260905000604 | 81 | 0 | 0.0 | 0.0 | 0.00 | 0.71 | 0.71 | 84 | 1015.0 |
| 20260905000112 | 81 | 0 | 0.0 | 0.0 | 0.00 | 0.71 | 0.71 | 84 | 1015.0 |
| 20260904235558 | 81 | 0 | 0.0 | 0.0 | 0.00 | 0.71 | 0.71 | 84 | 1015.0 |
| 20260904235100 | 81 | 0 | 0.0 | 0.0 | 0.00 | 0.71 | 0.71 | 84 | 1015.0 |
| 20260904234608 | 81 | 0 | 0.0 | 0.0 | 0.00 | 0.71 | 0.71 | 84 | 1014.9 |
| 20260904234058 | 81 | 0 | 0.0 | 0.0 | 0.00 | 0.71 | 0.71 | 84 | 1014.9 |
| 20260904233557 | 81 | 0 | 0.0 | 0.0 | 0.00 | 0.71 | 0.71 | 84 | 1014.9 |
| 20260904233115 | 81 | 0 | 0.0 | 0.0 | 0.00 | 0.71 | 0.71 | 84 | 1014.9 |
| 20260904232557 | 82 | 0 | 0.0 | 0.0 | 0.00 | 0.71 | 0.71 | 84 | 1014.9 |
| 20260904232057 | 82 | 0 | 0.0 | 0.0 | 0.00 | 0.71 | 0.71 | 84 | 1014.9 |
| 20260904231610 | 82 | 0 | 0.0 | 0.0 | 0.00 | 0.71 | 0.71 | 83 | 1015.0 |
| 20260904231059 | 82 | 0 | 0.0 | 0.0 | 0.00 | 0.71 | 0.71 | 84 | 1015.0 |
| 20260904230558 | 82 | 0 | 0.0 | 0.0 | 0.00 | 0.71 | 0.71 | 83 | 1015.0 |
| 20260904230112 | 82 | 0 | 0.0 | 0.0 | 0.00 | 0.71 | 0.71 | 83 | 1015.0 |
| 20260904225558 | 82 | 0 | 0.0 | 0.0 | 0.00 | 0.71 | 0.71 | 83 | 1015.1 |
| 20260904225058 | 82 | 0 | 0.0 | 0.0 | 0.00 | 0.71 | 0.71 | 83 | 1015.2 |
| 20260904224622 | 82 | 0 | 0.0 | 0.0 | 0.00 | 0.71 | 0.71 | 83 | 1015.2 |
| 20260904224058 | 82 | 0 | 0.0 | 0.0 | 0.00 | 0.71 | 0.71 | 83 | 1015.2 |
| 20260904223557 | 82 | 0 | 0.0 | 0.0 | 0.00 | 0.71 | 0.71 | 83 | 1015.1 |
| 20260904223111 | 82 | 0 | 0.0 | 0.0 | 0.00 | 0.71 | 0.71 | 83 | 1015.1 |
| 20260904222558 | 82 | 0 | 0.0 | 0.0 | 0.00 | 0.71 | 0.71 | 83 | 1015.2 |
| 20260904222056 | 82 | 0 | 0.0 | 0.0 | 0.00 | 0.71 | 0.71 | 83 | 1015.3 |
| 20260904221628 | 82 | 0 | 0.0 | 0.0 | 0.00 | 0.71 | 0.71 | 83 | 1015.3 |
| 20260904221056 | 82 | 0 | 0.0 | 0.0 | 0.01 | 0.71 | 0.71 | 83 | 1015.4 |
| 20260904220557 | 82 | 0 | 0.0 | 0.0 | 0.01 | 0.71 | 0.71 | 83 | 1015.4 |
| 20260904220106 | 82 | 0 | 0.0 | 0.0 | 0.01 | 0.71 | 0.71 | 83 | 1015.5 |
| 20260904215559 | 82 | 0 | 0.0 | 0.0 | 0.01 | 0.71 | 0.71 | 83 | 1015.3 |
| 20260904215101 | 82 | 0 | 0.0 | 0.0 | 0.01 | 0.71 | 0.71 | 82 | 1015.4 |
| 20260904214611 | 82 | 0 | 0.0 | 0.0 | 0.01 | 0.71 | 0.71 | 82 | 1015.3 |
| 20260904214057 | 82 | 0 | 0.0 | 0.0 | 0.01 | 0.71 | 0.71 | 82 | 1015.3 |
| 20260904213558 | 82 | 0 | 0.0 | 0.0 | 0.02 | 0.71 | 0.71 | 82 | 1015.3 |
| 20260904213104 | 82 | 0 | 0.0 | 0.0 | 0.02 | 0.71 | 0.71 | 82 | 1015.4 |
| 20260904212557 | 82 | 0 | 0.0 | 0.0 | 0.02 | 0.71 | 0.71 | 81 | 1015.4 |
| 20260904212059 | 82 | 0 | 0.0 | 0.0 | 0.02 | 0.71 | 0.71 | 81 | 1015.3 |
| 20260904211604 | 82 | 0 | 0.0 | 0.0 | 0.02 | 0.71 | 0.71 | 81 | 1015.3 |
| 20260904211057 | 82 | 0 | 0.0 | 0.0 | 0.01 | 0.70 | 0.70 | 80 | 1015.4 |
| 20260904210558 | 82 | 0 | 0.0 | 0.0 | 0.01 | 0.70 | 0.70 | 80 | 1015.4 |
| 20260904210125 | 82 | 0 | 0.0 | 0.0 | 0.01 | 0.70 | 0.70 | 80 | 1015.4 |
| 20260904205601 | 82 | 0 | 0.0 | 0.0 | 0.01 | 0.70 | 0.70 | 79 | 1015.6 |
| 20260904205057 | 82 | 0 | 0.0 | 0.0 | 0.01 | 0.70 | 0.70 | 79 | 1015.6 |
| 20260904204602 | 82 | 0 | 0.0 | 0.0 | 0.01 | 0.70 | 0.70 | 79 | 1015.7 |
| 20260904204101 | 82 | 0 | 0.0 | 0.0 | 0.01 | 0.70 | 0.70 | 78 | 1015.7 |
| 20260904203603 | 82 | 0 | 0.0 | 0.0 | 0.00 | 0.69 | 0.69 | 78 | 1015.8 |
| 20260904203102 | 82 | 0 | 0.0 | 0.0 | 0.00 | 0.69 | 0.69 | 78 | 1015.9 |
| 20260904202600 | 82 | 0 | 0.0 | 0.0 | 0.00 | 0.69 | 0.69 | 77 | 1015.9 |
| 20260904202102 | 82 | 0 | 0.0 | 0.0 | 0.00 | 0.69 | 0.69 | 77 | 1015.9 |
| 20260904201630 | 82 | 0 | 0.0 | 0.0 | 0.00 | 0.69 | 0.69 | 77 | 1015.9 |
| 20260904201101 | 82 | 0 | 0.0 | 0.0 | 0.00 | 0.69 | 0.69 | 76 | 1015.9 |
| 20260904200600 | 82 | 0 | 0.0 | 0.0 | 0.00 | 0.69 | 0.69 | 76 | 1015.9 |
| 20260904200121 | 82 | 0 | 0.0 | 0.0 | 0.00 | 0.69 | 0.69 | 76 | 1016.0 |
| 20260904195602 | 82 | 0 | 0.0 | 0.0 | 0.00 | 0.69 | 0.69 | 76 | 1016.2 |
| 20260904195102 | 82 | 0 | 0.0 | 0.0 | 0.00 | 0.69 | 0.69 | 76 | 1016.2 |
| 20260904194605 | 82 | 0 | 0.0 | 2.0 | 0.00 | 0.69 | 0.69 | 76 | 1016.1 |
| 20260904194059 | 83 | 0 | 0.0 | 3.0 | 0.00 | 0.69 | 0.69 | 76 | 1016.2 |
| 20260904193601 | 83 | 0 | 0.0 | 4.0 | 0.00 | 0.69 | 0.69 | 75 | 1016.1 |
| 20260904193103 | 83 | 215 | 2.0 | 4.0 | 0.00 | 0.69 | 0.69 | 75 | 1016.3 |
| 20260904192559 | 84 | 0 | 0.0 | 6.0 | 0.00 | 0.69 | 0.69 | 75 | 1016.4 |
| 20260904192100 | 84 | 271 | 1.0 | 6.0 | 0.00 | 0.69 | 0.69 | 74 | 1016.3 |
| 20260904191602 | 84 | 277 | 2.0 | 6.0 | 0.00 | 0.69 | 0.69 | 73 | 1016.4 |
| 20260904191101 | 85 | 223 | 1.0 | 6.0 | 0.00 | 0.69 | 0.69 | 73 | 1016.3 |
| 20260904190559 | 85 | 0 | 0.0 | 3.0 | 0.00 | 0.69 | 0.69 | 73 | 1016.5 |
| 20260904190105 | 85 | 0 | 0.0 | 0.0 | 0.00 | 0.69 | 0.69 | 73 | 1016.5 |
| 20260904185558 | 85 | 0 | 0.0 | 0.0 | 0.00 | 0.69 | 0.69 | 73 | 1016.5 |
| 20260904185058 | 85 | 0 | 0.0 | 2.0 | 0.00 | 0.69 | 0.69 | 73 | 1016.5 |
| 20260904184607 | 86 | 0 | 0.0 | 9.0 | 0.00 | 0.69 | 0.69 | 72 | 1016.6 |
| 20260904184100 | 86 | 0 | 1.0 | 9.0 | 0.00 | 0.69 | 0.69 | 71 | 1016.8 |
| 20260904183558 | 87 | 267 | 3.0 | 9.0 | 0.00 | 0.69 | 0.69 | 71 | 1017.0 |
| 20260904183103 | 88 | 290 | 2.0 | 9.0 | 0.00 | 0.69 | 0.69 | 72 | 1016.8 |
| 20260904182601 | 89 | 0 | 0.0 | 5.0 | 0.00 | 0.69 | 0.69 | 73 | 1016.8 |
| 20260904182101 | 89 | 0 | 0.0 | 5.0 | 0.00 | 0.69 | 0.69 | 72 | 1016.7 |
| 20260904181606 | 89 | 57 | 1.0 | 8.0 | 0.00 | 0.69 | 0.69 | 72 | 1016.6 |
| 20260904181101 | 89 | 142 | 0.0 | 8.0 | 0.00 | 0.69 | 0.69 | 72 | 1016.5 |
| 20260904180603 | 89 | 0 | 2.0 | 8.0 | 0.00 | 0.69 | 0.69 | 71 | 1016.5 |
| 20260904180108 | 89 | 91 | 1.0 | 9.0 | 0.00 | 0.69 | 0.69 | 71 | 1016.5 |
| 20260904175603 | 90 | 90 | 2.0 | 9.0 | 0.00 | 0.69 | 0.69 | 71 | 1016.6 |
| 20260904175056 | 90 | 0 | 0.0 | 9.0 | 0.00 | 0.69 | 0.69 | 71 | 1016.7 |
| 20260904174603 | 89 | 83 | 3.0 | 9.0 | 0.00 | 0.69 | 0.69 | 71 | 1016.6 |
| 20260904174058 | 89 | 87 | 1.0 | 10.0 | 0.00 | 0.69 | 0.69 | 71 | 1016.5 |
| 20260904173557 | 89 | 183 | 3.0 | 10.0 | 0.00 | 0.69 | 0.69 | 72 | 1016.6 |
| 20260904173107 | 89 | 97 | 2.0 | 8.0 | 0.00 | 0.69 | 0.69 | 71 | 1016.8 |
| 20260904172558 | 89 | 82 | 2.0 | 8.0 | 0.00 | 0.69 | 0.69 | 71 | 1016.8 |
| 20260904172059 | 89 | 84 | 2.0 | 10.0 | 0.00 | 0.69 | 0.69 | 71 | 1016.8 |
| 20260904171623 | 89 | 85 | 3.0 | 10.0 | 0.00 | 0.69 | 0.69 | 70 | 1016.9 |
| 20260904171057 | 89 | 79 | 2.0 | 8.0 | 0.00 | 0.69 | 0.69 | 70 | 1017.0 |
| 20260904170556 | 89 | 42 | 0.0 | 7.0 | 0.00 | 0.69 | 0.69 | 71 | 1017.0 |
| 20260904170107 | 89 | 350 | 2.0 | 6.0 | 0.00 | 0.69 | 0.69 | 70 | 1017.1 |
| 20260904165557 | 90 | 103 | 2.0 | 4.0 | 0.00 | 0.69 | 0.69 | 70 | 1017.2 |
| 20260904165058 | 90 | 29 | 1.0 | 3.0 | 0.00 | 0.69 | 0.69 | 70 | 1017.1 |
| 20260904164602 | 90 | 0 | 0.0 | 6.0 | 0.00 | 0.69 | 0.69 | 71 | 1017.1 |
| 20260904164058 | 90 | 0 | 1.0 | 8.0 | 0.00 | 0.69 | 0.69 | 72 | 1017.0 |
| 20260904163557 | 90 | 326 | 1.0 | 8.0 | 0.00 | 0.69 | 0.69 | 72 | 1016.9 |
| 20260904163108 | 90 | 352 | 2.0 | 4.0 | 0.00 | 0.69 | 0.69 | 72 | 1017.1 |
| 20260904162558 | 89 | 0 | 0.0 | 3.0 | 0.00 | 0.69 | 0.69 | 75 | 1017.1 |
| 20260904162058 | 88 | 44 | 1.0 | 3.0 | 0.00 | 0.69 | 0.69 | 74 | 1017.1 |
| 20260904161612 | 88 | 0 | 0.0 | 0.0 | 0.00 | 0.69 | 0.69 | 75 | 1017.4 |
| 20260904161056 | 88 | 0 | 0.0 | 0.0 | 0.00 | 0.69 | 0.69 | 76 | 1017.5 |
| 20260904160557 | 88 | 0 | 0.0 | 0.0 | 0.00 | 0.69 | 0.69 | 76 | 1017.3 |
| 20260904160104 | 88 | 0 | 0.0 | 4.0 | 0.00 | 0.69 | 0.69 | 76 | 1017.3 |
| 20260904155600 | 88 | 0 | 0.0 | 7.0 | 0.00 | 0.69 | 0.69 | 77 | 1017.4 |
| 20260904155058 | 88 | 0 | 1.0 | 7.0 | 0.00 | 0.69 | 0.69 | 77 | 1017.6 |
| 20260904154602 | 88 | 279 | 1.0 | 5.0 | 0.00 | 0.69 | 0.69 | 77 | 1017.6 |
| 20260904154056 | 88 | 0 | 0.0 | 4.0 | 0.00 | 0.69 | 0.69 | 79 | 1017.4 |
| 20260904153557 | 87 | 0 | 0.0 | 4.0 | 0.00 | 0.69 | 0.69 | 80 | 1017.4 |
| 20260904153118 | 87 | 0 | 1.0 | 4.0 | 0.00 | 0.69 | 0.69 | 82 | 1017.1 |
| 20260904152557 | 86 | 245 | 0.0 | 3.0 | 0.00 | 0.69 | 0.69 | 84 | 1017.1 |
| 20260904152058 | 85 | 0 | 0.0 | 4.0 | 0.00 | 0.69 | 0.69 | 85 | 1017.2 |
| 20260904151602 | 84 | 149 | 0.0 | 4.0 | 0.00 | 0.69 | 0.69 | 85 | 1017.2 |
| 20260904151057 | 84 | 0 | 0.0 | 2.0 | 0.00 | 0.69 | 0.69 | 86 | 1017.3 |
| 20260904150558 | 83 | 0 | 0.0 | 0.0 | 0.00 | 0.69 | 0.69 | 86 | 1017.4 |
| 20260904150111 | 84 | 0 | 0.0 | 0.0 | 0.00 | 0.69 | 0.69 | 87 | 1017.3 |
| 20260904145559 | 83 | 0 | 0.0 | 0.0 | 0.00 | 0.69 | 0.69 | 87 | 1017.2 |
| 20260904145059 | 83 | 0 | 0.0 | 0.0 | 0.00 | 0.69 | 0.69 | 87 | 1017.2 |
| 20260904144613 | 83 | 0 | 0.0 | 0.0 | 0.00 | 0.69 | 0.69 | 87 | 1017.0 |
| 20260904144058 | 83 | 0 | 0.0 | 0.0 | 0.00 | 0.69 | 0.69 | 87 | 1017.1 |
| 20260904143601 | 83 | 0 | 0.0 | 0.0 | 0.00 | 0.69 | 0.69 | 87 | 1017.1 |
| 20260904143123 | 83 | 0 | 0.0 | 0.0 | 0.00 | 0.69 | 0.69 | 86 | 1017.1 |
| 20260904142600 | 83 | 0 | 0.0 | 0.0 | 0.05 | 0.69 | 0.69 | 87 | 1017.1 |
| 20260904142100 | 83 | 0 | 0.0 | 0.0 | 0.19 | 0.69 | 0.69 | 86 | 1017.1 |
| 20260904141602 | 83 | 0 | 0.0 | 2.0 | 0.44 | 0.69 | 0.69 | 86 | 1017.2 |
| 20260904141100 | 83 | 0 | 0.0 | 2.0 | 0.58 | 0.69 | 0.69 | 86 | 1017.2 |
| 20260904140558 | 83 | 262 | 0.0 | 3.0 | 0.66 | 0.69 | 0.69 | 86 | 1017.1 |
| 20260904140109 | 83 | 273 | 0.0 | 3.0 | 0.69 | 0.69 | 0.69 | 86 | 1017.1 |
| 20260904135601 | 82 | 240 | 0.0 | 0.0 | 0.69 | 0.69 | 0.69 | 86 | 1017.1 |
| 20260904135104 | 82 | 0 | 0.0 | 0.0 | 0.69 | 0.69 | 0.69 | 86 | 1017.1 |
| 20260904134603 | 81 | 0 | 0.0 | 2.0 | 0.69 | 0.69 | 0.69 | 86 | 1017.0 |
| 20260904134100 | 81 | 0 | 0.0 | 2.0 | 0.69 | 0.69 | 0.69 | 85 | 1017.0 |
| 20260904133601 | 81 | 0 | 0.0 | 2.0 | 0.69 | 0.69 | 0.69 | 84 | 1017.0 |
| 20260904133116 | 81 | 0 | 0.0 | 3.0 | 0.69 | 0.69 | 0.69 | 84 | 1016.8 |
| 20260904132600 | 80 | 0 | 0.0 | 3.0 | 0.64 | 0.64 | 0.64 | 83 | 1017.0 |
| 20260904132100 | 81 | 277 | 1.0 | 7.0 | 0.50 | 0.50 | 0.50 | 82 | 1017.1 |
| 20260904131602 | 82 | 244 | 1.0 | 7.0 | 0.24 | 0.24 | 0.24 | 81 | 1017.3 |
| 20260904131059 | 82 | 238 | 1.0 | 7.0 | 0.10 | 0.10 | 0.10 | 81 | 1017.2 |
| 20260904130559 | 83 | 301 | 0.0 | 3.0 | 0.03 | 0.03 | 0.03 | 81 | 1017.1 |
| 20260904130109 | 83 | 0 | 0.0 | 0.0 | 0.00 | 0.00 | 0.00 | 81 | 1016.8 |
| 20260904125601 | 82 | 0 | 0.0 | 0.0 | 0.00 | 0.00 | 0.00 | 81 | 1016.6 |
| 20260904125103 | 82 | 0 | 0.0 | 0.0 | 0.00 | 0.00 | 0.00 | 81 | 1016.6 |
| 20260904124606 | 82 | 0 | 0.0 | 0.0 | 0.00 | 0.00 | 0.00 | 81 | 1016.6 |
| 20260904124101 | 82 | 0 | 0.0 | 0.0 | 0.00 | 0.00 | 0.00 | 81 | 1016.5 |
| 20260904123601 | 82 | 0 | 0.0 | 0.0 | 0.00 | 0.00 | 0.00 | 81 | 1016.5 |
| 20260904123104 | 82 | 0 | 0.0 | 1.0 | 0.00 | 0.00 | 0.00 | 82 | 1016.4 |
| 20260904122600 | 82 | 0 | 0.0 | 1.0 | 0.00 | 0.00 | 0.00 | 82 | 1016.4 |
| 20260904122104 | 82 | 0 | 0.0 | 3.0 | 0.00 | 0.00 | 0.00 | 83 | 1016.3 |
| 20260904121615 | 82 | 0 | 0.0 | 7.0 | 0.00 | 0.00 | 0.00 | 83 | 1016.4 |
| 20260904121059 | 82 | 109 | 0.0 | 7.0 | 0.00 | 0.00 | 0.00 | 84 | 1016.4 |
| 20260904120602 | 82 | 0 | 1.0 | 7.0 | 0.00 | 0.00 | 0.00 | 83 | 1016.2 |
| 20260904120109 | 82 | 46 | 1.0 | 7.0 | 0.00 | 0.00 | 0.00 | 84 | 1016.3 |
| 20260904115601 | 82 | 0 | 0.0 | 0.0 | 0.00 | 0.00 | 0.00 | 84 | 1016.4 |
| 20260904115101 | 82 | 0 | 0.0 | 0.0 | 0.00 | 0.00 | 0.00 | 84 | 1016.4 |
| 20260904114607 | 82 | 0 | 0.0 | 0.0 | 0.00 | 0.00 | 0.00 | 83 | 1016.3 |
| 20260904114100 | 82 | 0 | 0.0 | 0.0 | 0.00 | 0.00 | 0.00 | 83 | 1016.1 |
| 20260904113602 | 82 | 0 | 0.0 | 0.0 | 0.00 | 0.00 | 0.00 | 83 | 1016.0 |
| 20260904113103 | 82 | 0 | 0.0 | 0.0 | 0.00 | 0.00 | 0.00 | 83 | 1015.9 |
| 20260904112600 | 82 | 0 | 0.0 | 0.0 | 0.00 | 0.00 | 0.00 | 83 | 1015.8 |
| 20260904112057 | 82 | 0 | 0.0 | 0.0 | 0.00 | 0.00 | 0.00 | 83 | 1015.8 |
| 20260904111607 | 82 | 0 | 0.0 | 0.0 | 0.00 | 0.00 | 0.00 | 83 | 1015.9 |
| 20260904111101 | 82 | 0 | 0.0 | 0.0 | 0.00 | 0.00 | 0.00 | 83 | 1015.8 |
| 20260904110601 | 82 | 0 | 0.0 | 0.0 | 0.00 | 0.00 | 0.00 | 83 | 1015.8 |
| 20260904110110 | 82 | 0 | 0.0 | 0.0 | 0.00 | 0.00 | 0.00 | 83 | 1015.6 |
| 20260904105600 | 82 | 0 | 0.0 | 0.0 | 0.00 | 0.00 | 0.00 | 83 | 1015.5 |
| 20260904105100 | 82 | 0 | 0.0 | 0.0 | 0.00 | 0.00 | 0.00 | 83 | 1015.5 |
| 20260904104604 | 82 | 0 | 0.0 | 0.0 | 0.00 | 0.00 | 0.00 | 83 | 1015.4 |
| 20260904104100 | 82 | 0 | 0.0 | 0.0 | 0.00 | 0.00 | 0.00 | 83 | 1015.3 |
| 20260904103558 | 82 | 0 | 0.0 | 0.0 | 0.00 | 0.00 | 0.00 | 84 | 1015.2 |
| 20260904103103 | 82 | 0 | 0.0 | 0.0 | 0.00 | 0.00 | 0.00 | 84 | 1015.0 |
| 20260904102559 | 82 | 0 | 0.0 | 0.0 | 0.00 | 0.00 | 0.00 | 84 | 1015.1 |
| 20260904102100 | 82 | 0 | 0.0 | 2.0 | 0.00 | 0.00 | 0.00 | 84 | 1015.0 |
| 20260904101607 | 82 | 0 | 0.0 | 2.0 | 0.00 | 0.00 | 0.00 | 84 | 1015.1 |
| 20260904101101 | 82 | 0 | 0.0 | 2.0 | 0.00 | 0.00 | 0.00 | 84 | 1014.9 |
| 20260904100601 | 82 | 0 | 0.0 | 0.0 | 0.00 | 0.00 | 0.00 | 84 | 1014.9 |
| 20260904100103 | 82 | 0 | 0.0 | 0.0 | 0.00 | 0.00 | 0.00 | 84 | 1014.8 |
| 20260904095601 | 81 | 0 | 0.0 | 0.0 | 0.00 | 0.00 | 0.00 | 84 | 1014.7 |
| 20260904095101 | 81 | 0 | 0.0 | 0.0 | 0.00 | 0.00 | 0.00 | 84 | 1014.8 |
| 20260904094604 | 81 | 0 | 0.0 | 0.0 | 0.00 | 0.00 | 0.00 | 84 | 1014.7 |
| 20260904094058 | 81 | 0 | 0.0 | 0.0 | 0.00 | 0.00 | 0.00 | 84 | 1014.6 |
| 20260904093600 | 81 | 0 | 0.0 | 0.0 | 0.00 | 0.00 | 0.00 | 84 | 1014.6 |
| 20260904093105 | 81 | 0 | 0.0 | 0.0 | 0.00 | 0.00 | 0.00 | 84 | 1014.5 |
| 20260904092559 | 81 | 0 | 0.0 | 0.0 | 0.00 | 0.00 | 0.00 | 84 | 1014.6 |
| 20260904092059 | 81 | 0 | 0.0 | 0.0 | 0.00 | 0.00 | 0.00 | 84 | 1014.6 |
| 20260904091608 | 81 | 0 | 0.0 | 0.0 | 0.00 | 0.00 | 0.00 | 84 | 1014.5 |
| 20260904091102 | 81 | 0 | 0.0 | 0.0 | 0.00 | 0.00 | 0.00 | 84 | 1014.6 |
| 20260904090600 | 81 | 0 | 0.0 | 0.0 | 0.00 | 0.00 | 0.00 | 84 | 1014.6 |
| 20260904090106 | 81 | 0 | 0.0 | 0.0 | 0.00 | 0.00 | 0.00 | 83 | 1014.7 |
| 20260904085601 | 81 | 0 | 0.0 | 0.0 | 0.00 | 0.00 | 0.00 | 83 | 1014.6 |
| 20260904085059 | 81 | 0 | 0.0 | 0.0 | 0.00 | 0.00 | 0.00 | 83 | 1014.6 |
| 20260904084603 | 81 | 0 | 0.0 | 0.0 | 0.00 | 0.00 | 0.00 | 83 | 1014.6 |
| 20260904084102 | 81 | 0 | 0.0 | 0.0 | 0.00 | 0.00 | 0.00 | 83 | 1014.6 |
| 20260904083602 | 81 | 0 | 0.0 | 0.0 | 0.00 | 0.00 | 0.00 | 82 | 1014.5 |
| 20260904083105 | 81 | 0 | 0.0 | 0.0 | 0.00 | 0.00 | 0.00 | 82 | 1014.6 |
| 20260904082601 | 81 | 0 | 0.0 | 0.0 | 0.00 | 0.00 | 0.00 | 82 | 1014.4 |
| 20260904082100 | 81 | 0 | 0.0 | 0.0 | 0.00 | 0.00 | 0.00 | 82 | 1014.4 |
| 20260904081606 | 81 | 0 | 0.0 | 0.0 | 0.00 | 0.00 | 0.00 | 82 | 1014.5 |
| 20260904081057 | 81 | 0 | 0.0 | 0.0 | 0.00 | 0.00 | 0.00 | 82 | 1014.4 |
| 20260904080600 | 81 | 0 | 0.0 | 0.0 | 0.00 | 0.00 | 0.00 | 82 | 1014.4 |
| 20260904080120 | 81 | 0 | 0.0 | 0.0 | 0.00 | 0.00 | 0.00 | 82 | 1014.4 |
| 20260904075602 | 81 | 0 | 0.0 | 0.0 | 0.00 | 0.00 | 0.00 | 81 | 1014.4 |
| 20260904075059 | 81 | 0 | 0.0 | 0.0 | 0.00 | 0.00 | 0.00 | 81 | 1014.2 |
| 20260904074603 | 81 | 0 | 0.0 | 0.0 | 0.00 | 0.00 | 0.00 | 81 | 1014.4 |
| 20260904074102 | 81 | 0 | 0.0 | 0.0 | 0.00 | 0.00 | 0.00 | 81 | 1014.4 |
| 20260904073559 | 81 | 0 | 0.0 | 0.0 | 0.00 | 0.00 | 0.00 | 81 | 1014.4 |
| 20260904073113 | 82 | 0 | 0.0 | 0.0 | 0.00 | 0.00 | 0.00 | 81 | 1014.4 |
| 20260904072559 | 82 | 0 | 0.0 | 0.0 | 0.00 | 0.00 | 0.00 | 81 | 1014.3 |
| 20260904072057 | 82 | 0 | 0.0 | 0.0 | 0.00 | 0.00 | 0.00 | 81 | 1014.4 |
| 20260904071603 | 82 | 0 | 0.0 | 0.0 | 0.00 | 0.00 | 0.00 | 81 | 1014.4 |
| 20260904071058 | 82 | 0 | 0.0 | 0.0 | 0.00 | 0.00 | 0.00 | 80 | 1014.5 |
| 20260904070557 | 82 | 0 | 0.0 | 0.0 | 0.00 | 0.00 | 0.00 | 80 | 1014.6 |
| 20260904070106 | 82 | 0 | 0.0 | 0.0 | 0.00 | 0.00 | 0.00 | 80 | 1014.5 |
| 20260904065602 | 82 | 0 | 0.0 | 0.0 | 0.00 | 0.00 | 0.00 | 80 | 1014.5 |
| 20260904065100 | 82 | 0 | 0.0 | 0.0 | 0.00 | 0.00 | 0.00 | 80 | 1014.4 |
| 20260904064604 | 82 | 0 | 0.0 | 0.0 | 0.00 | 0.00 | 0.00 | 80 | 1014.6 |
| 20260904064100 | 83 | 0 | 0.0 | 0.0 | 0.00 | 0.00 | 0.00 | 80 | 1014.6 |
| 20260904063605 | 83 | 0 | 0.0 | 0.0 | 0.00 | 0.00 | 0.00 | 80 | 1014.6 |
| 20260904063117 | 83 | 0 | 0.0 | 0.0 | 0.00 | 0.00 | 0.00 | 80 | 1014.7 |
| 20260904062600 | 83 | 0 | 0.0 | 0.0 | 0.00 | 0.00 | 0.00 | 80 | 1014.8 |
| 20260904062059 | 83 | 0 | 0.0 | 0.0 | 0.00 | 0.00 | 0.00 | 80 | 1014.8 |
| 20260904061607 | 83 | 0 | 0.0 | 0.0 | 0.00 | 0.00 | 0.00 | 80 | 1014.9 |
| 20260904061101 | 83 | 0 | 0.0 | 0.0 | 0.00 | 0.00 | 0.00 | 80 | 1014.9 |
| 20260904060601 | 83 | 0 | 0.0 | 0.0 | 0.00 | 0.00 | 0.00 | 80 | 1014.8 |
| 20260904060108 | 83 | 0 | 0.0 | 0.0 | 0.00 | 0.00 | 0.00 | 80 | 1014.9 |
| 20260904055600 | 83 | 0 | 0.0 | 0.0 | 0.00 | 0.00 | 0.00 | 80 | 1015.0 |
| 20260904055100 | 83 | 0 | 0.0 | 0.0 | 0.00 | 0.00 | 0.00 | 80 | 1015.0 |
| 20260904054604 | 83 | 0 | 0.0 | 0.0 | 0.00 | 0.00 | 0.00 | 80 | 1015.0 |
| 20260904054058 | 83 | 0 | 0.0 | 0.0 | 0.00 | 0.00 | 0.00 | 80 | 1015.1 |
| 20260904053558 | 83 | 0 | 0.0 | 0.0 | 0.00 | 0.00 | 0.00 | 80 | 1015.2 |
| 20260904053132 | 83 | 0 | 0.0 | 0.0 | 0.00 | 0.00 | 0.00 | 80 | 1015.2 |
| 20260904052601 | 83 | 0 | 0.0 | 0.0 | 0.00 | 0.00 | 0.00 | 80 | 1015.2 |
| 20260904052059 | 83 | 0 | 0.0 | 0.0 | 0.00 | 0.00 | 0.00 | 81 | 1015.2 |
| 20260904051608 | 83 | 0 | 0.0 | 0.0 | 0.00 | 0.00 | 0.00 | 81 | 1015.2 |
| 20260904051059 | 83 | 0 | 0.0 | 0.0 | 0.00 | 0.00 | 0.00 | 81 | 1015.3 |
| 20260904050604 | 83 | 0 | 0.0 | 0.0 | 0.00 | 0.00 | 0.00 | 80 | 1015.2 |
| 20260904050105 | 83 | 0 | 0.0 | 1.0 | 0.00 | 0.00 | 0.00 | 80 | 1015.3 |
| 20260904045602 | 83 | 0 | 0.0 | 2.0 | 0.00 | 0.01 | 0.00 | 80 | 1015.4 |
| 20260904045100 | 83 | 0 | 0.0 | 2.0 | 0.00 | 0.01 | 0.00 | 80 | 1015.3 |
| 20260904044614 | 83 | 0 | 0.0 | 0.0 | 0.00 | 0.01 | 0.00 | 80 | 1015.4 |
| 20260904044100 | 83 | 0 | 0.0 | 1.0 | 0.00 | 0.01 | 0.00 | 80 | 1015.5 |
| 20260904043559 | 83 | 0 | 0.0 | 1.0 | 0.00 | 0.01 | 0.00 | 79 | 1015.5 |
| 20260904043109 | 83 | 0 | 0.0 | 1.0 | 0.00 | 0.01 | 0.00 | 79 | 1015.4 |
| 20260904042559 | 83 | 0 | 0.0 | 1.0 | 0.00 | 0.01 | 0.00 | 79 | 1015.5 |
| 20260904042059 | 83 | 0 | 0.0 | 0.0 | 0.00 | 0.01 | 0.00 | 79 | 1015.5 |
| 20260904041606 | 83 | 0 | 0.0 | 0.0 | 0.00 | 0.01 | 0.00 | 79 | 1015.5 |
| 20260904041100 | 83 | 0 | 0.0 | 0.0 | 0.00 | 0.01 | 0.00 | 79 | 1015.5 |
| 20260904040600 | 83 | 0 | 0.0 | 4.0 | 0.00 | 0.01 | 0.00 | 79 | 1015.5 |
| 20260904040104 | 83 | 0 | 0.0 | 4.0 | 0.00 | 0.01 | 0.00 | 79 | 1015.6 |
| 20260904035601 | 83 | 0 | 0.0 | 4.0 | 0.00 | 0.01 | 0.01 | 79 | 1015.6 |
| 20260904035059 | 83 | 0 | 0.0 | 0.0 | 0.00 | 0.01 | 0.01 | 79 | 1015.7 |
| 20260904034634 | 83 | 0 | 0.0 | 0.0 | 0.00 | 0.01 | 0.01 | 79 | 1015.8 |
| 20260904034059 | 83 | 0 | 0.0 | 0.0 | 0.00 | 0.01 | 0.01 | 79 | 1015.7 |
| 20260904033603 | 83 | 0 | 0.0 | 0.0 | 0.00 | 0.01 | 0.01 | 79 | 1015.8 |
| 20260904033105 | 83 | 0 | 0.0 | 0.0 | 0.00 | 0.01 | 0.01 | 79 | 1015.8 |
| 20260904032601 | 83 | 0 | 0.0 | 0.0 | 0.00 | 0.01 | 0.01 | 79 | 1015.9 |
| 20260904032103 | 83 | 0 | 0.0 | 0.0 | 0.00 | 0.01 | 0.01 | 78 | 1016.0 |
| 20260904031603 | 83 | 0 | 0.0 | 0.0 | 0.00 | 0.01 | 0.01 | 78 | 1015.9 |
| 20260904031059 | 83 | 0 | 0.0 | 0.0 | 0.00 | 0.01 | 0.01 | 78 | 1015.8 |
| 20260904030604 | 83 | 0 | 0.0 | 0.0 | 0.00 | 0.01 | 0.01 | 78 | 1015.8 |
| 20260904030104 | 83 | 0 | 0.0 | 0.0 | 0.00 | 0.01 | 0.01 | 78 | 1015.9 |
| 20260904025559 | 83 | 0 | 0.0 | 0.0 | 0.00 | 0.05 | 0.01 | 78 | 1015.9 |
| 20260904025059 | 83 | 0 | 0.0 | 0.0 | 0.00 | 0.05 | 0.01 | 78 | 1015.9 |
| 20260904024606 | 83 | 0 | 0.0 | 0.0 | 0.00 | 0.05 | 0.01 | 78 | 1015.9 |
| 20260904024058 | 83 | 0 | 0.0 | 0.0 | 0.00 | 0.05 | 0.01 | 78 | 1015.9 |
| 20260904023559 | 83 | 0 | 0.0 | 0.0 | 0.00 | 0.05 | 0.01 | 78 | 1015.7 |
| 20260904023104 | 83 | 0 | 0.0 | 0.0 | 0.00 | 0.05 | 0.01 | 78 | 1015.7 |
| 20260904022601 | 83 | 0 | 0.0 | 0.0 | 0.00 | 0.05 | 0.01 | 78 | 1015.8 |
| 20260904022101 | 83 | 0 | 0.0 | 0.0 | 0.00 | 0.05 | 0.01 | 78 | 1015.8 |
| 20260904021618 | 83 | 0 | 0.0 | 0.0 | 0.00 | 0.05 | 0.01 | 78 | 1015.6 |
| 20260904021059 | 83 | 0 | 0.0 | 0.0 | 0.00 | 0.05 | 0.01 | 78 | 1015.6 |
| 20260904020559 | 83 | 0 | 0.0 | 0.0 | 0.00 | 0.05 | 0.01 | 78 | 1015.7 |
| 20260904020106 | 83 | 0 | 0.0 | 1.0 | 0.00 | 0.05 | 0.01 | 78 | 1015.7 |
| 20260904015559 | 83 | 0 | 0.0 | 1.0 | 0.00 | 0.30 | 0.01 | 78 | 1015.7 |
| 20260904015059 | 83 | 0 | 0.0 | 1.0 | 0.00 | 0.30 | 0.01 | 78 | 1015.7 |
| 20260904014611 | 83 | 0 | 0.0 | 1.0 | 0.00 | 0.30 | 0.01 | 78 | 1015.7 |
| 20260904014101 | 83 | 0 | 0.0 | 3.0 | 0.00 | 0.30 | 0.01 | 78 | 1015.7 |
| 20260904013601 | 83 | 0 | 0.0 | 3.0 | 0.00 | 0.30 | 0.01 | 78 | 1015.6 |
| 20260904013125 | 83 | 192 | 0.0 | 3.0 | 0.00 | 0.30 | 0.01 | 78 | 1015.5 |
| 20260904012558 | 83 | 0 | 0.0 | 0.0 | 0.00 | 0.30 | 0.01 | 78 | 1015.4 |
| 20260904012058 | 83 | 0 | 0.0 | 0.0 | 0.00 | 0.30 | 0.01 | 78 | 1015.3 |
| 20260904011647 | 83 | 0 | 0.0 | 0.0 | 0.00 | 0.30 | 0.01 | 78 | 1015.3 |
| 20260904011101 | 82 | 0 | 0.0 | 0.0 | 0.00 | 0.30 | 0.01 | 78 | 1015.3 |
| 20260904010601 | 83 | 0 | 0.0 | 0.0 | 0.00 | 0.30 | 0.01 | 78 | 1015.3 |
| 20260904010108 | 82 | 0 | 0.0 | 0.0 | 0.00 | 0.30 | 0.01 | 78 | 1015.3 |
| 20260904005602 | 83 | 0 | 0.0 | 0.0 | 0.00 | 0.30 | 0.01 | 77 | 1015.2 |
| 20260904005101 | 83 | 0 | 0.0 | 0.0 | 0.00 | 0.30 | 0.01 | 77 | 1015.2 |
| 20260904004603 | 83 | 0 | 0.0 | 0.0 | 0.00 | 0.30 | 0.01 | 77 | 1015.1 |
| 20260904004101 | 83 | 0 | 0.0 | 0.0 | 0.00 | 0.30 | 0.01 | 76 | 1015.2 |
| 20260904003600 | 83 | 0 | 0.0 | 0.0 | 0.00 | 0.30 | 0.01 | 76 | 1015.1 |
| 20260904003101 | 83 | 0 | 0.0 | 0.0 | 0.00 | 0.30 | 0.01 | 76 | 1015.2 |
| 20260904002557 | 83 | 0 | 0.0 | 0.0 | 0.00 | 0.30 | 0.01 | 75 | 1015.2 |